Regional Weather Roundup
Issued by NWS Austin/San Antonio, TX

Home | Current Version | Previous Version | Text Only | Print | Product List | Glossary On
Versions: 1 2 3 4 5 6 7 8 9 10 11 12 13 14 15 16 17 18 19 20 21 22 23 24 25 26 27 28 29 30 31 32 33 34 35 36 37 38 39 40 41 42 43 44 45 46 47 48 49 50
000
ASUS44 KEWX 300210
RWREWX
SOUTH TEXAS REGIONAL WEATHER ROUNDUP
NATIONAL WEATHER SERVICE AUSTIN/SAN ANTONIO TX
900 PM CDT SUN MAR 29 2020

NOTE: "FAIR" INDICATED FEW OR NO CLOUDS BELOW 12,000 FEET WITH NO
SIGNIFICANT WEATHER AND/OR OBSTRUCTIONS TO VISIBILITY.

* - THESE STATIONS ARE NOT NWS OR FAA STATIONS...AND ARE NOT SUBJECT
    TO NWS AND FAA QUALITY CONTROL.

TXZ171-172-183>190-300300-
TEXAS HILL COUNTRY AND EDWARDS PLATEAU

CITY           SKY/WX    TMP DP  RH WIND       PRES   REMARKS
JUNCTION       CLOUDY    68  42  38 SE8       30.08S
*LLANO         MOCLDY    66  46  48 E5        30.12S
BURNET         CLOUDY    66  41  40 E5        30.12S
*HORSESHOE BAY CLOUDY    68  41  37 CALM      30.09F
*LAGO VISTA    CLOUDY    64  48  55 E7        30.10S
*KERRVILLE     MOCLDY    66  41  40 E5        30.10R
*FREDERICKSBRG MOCLDY    65  38  37 CALM      30.10S
*ROCKSPRINGS   CLOUDY    66  34  30 SE8G17    30.13R
*BOERNE        CLOUDY    66  41  39 E3        30.10S
*CASTROVILLE   CLOUDY    72  44  37 E6        30.08S
HONDO          CLOUDY    70  41  34 E8        30.07S
*UVALDE        LGT RAIN  70  39  32 E8        30.08R
DEL RIO        NOT AVBL
*LAUGHLIN AFB  MOCLDY    71  34  26 SE13      30.03S
*SPOFFORD      NOT AVBL
*EAGLE PASS    CLOUDY    73  30  20 E6        30.04S
CARRIZO SPRGS  LGT RAIN  68  48  49 E6G20     30.05R
$$

TXZ173-191>194-202-209-217>225-228-300300-
CENTRAL AND SOUTH CENTRAL TEXAS

CITY           SKY/WX    TMP DP  RH WIND       PRES   REMARKS
GEORGETOWN     MOCLDY    65  49  56 E3        30.12S
*TAYLOR        MOCLDY    67  49  53 E8        30.10S
AUSTIN/BERGSTM MOCLDY    68  51  54 NE5       30.08S
AUSTIN/MABRY   CLOUDY    71  45  39 MISG      30.10R
*PFLUGERVILLE  MOCLDY    66  50  55 E6        30.10S
SAN MARCOS     CLOUDY    69  51  52 E3        30.10R
NEW BRAUNFELS  CLOUDY    71  49  45 E6        30.08R
*RANDOLPH AFB  CLOUDY    68  46  45 E10       30.08R
*SEGUIN        NOT AVBL
SAN ANTONIO    CLOUDY    70  44  39 E7        30.08R
STINSON FIELD  CLOUDY    67  50  54 SE8       30.06R
*KELLY FIELD   CLOUDY    70  46  40 E7        30.05S
*PLEASANTON    CLOUDY    65  49  56 E7        30.07F
*KENEDY        CLOUDY    63  58  82 NE3       30.07S
*LA GRANGE     CLOUDY   N/A N/A N/A CALM      30.07S
*GIDDINGS      LGT RAIN  67  56  66 N5        30.10R
*GONZALES      CLOUDY    70  48  46 E5        30.07S
$$

TXZ163>164-176>182-195>201-210>213-226-227-235-300300-
SOUTHEAST TEXAS

CITY           SKY/WX    TMP DP  RH WIND       PRES   REMARKS
COLLEGE STN    CLOUDY    67  53  61 E9        30.10S
*BRYAN         CLOUDY    65  57  75 N3        30.13R
*CALDWELL      CLOUDY    65  57  73 NE5       30.11S
*CROCKETT      NOT AVBL
*BRENHAM       CLOUDY    69  53  58 E5        30.10S
HUNTSVILLE     CLOUDY    64  57  78 E6        30.11F
CONROE         CLOUDY    67  53  61 N3        30.12R
HOUSTON BUSH   MOCLDY    71  46  40 NE5       30.09R
HOUSTON HOBBY  MOCLDY    76  49  38 NE8       30.07S
*HOUSTON SW AP CLOUDY    72  56  56 E3        30.08R
PEARLAND       CLOUDY    76  54  46 E7        30.08S
HOUSTON HOOKS  CLOUDY    72  44  36 E6        30.10R
ELLINGTON FLD  NOT AVBL
SUGAR LAND     CLOUDY    75  51  43 E5        30.07R
*HOUSTON EXEC  CLOUDY    70  52  52 CALM      30.10R
*CLEVELAND MUN CLOUDY    64  51  62 CALM      30.12R
*WHARTON       CLOUDY    69  48  47 NE6       30.08S
*COLUMBUS      CLOUDY    67  45  44 CALM      30.09R
*EAGLE LAKE    RAIN      71  56  59 SE10G18   30.09
$$

TXZ214>216-236>238-300300-
THE UPPER TEXAS COAST

CITY           SKY/WX    TMP DP  RH WIND       PRES   REMARKS
*ORANGE        CLOUDY    71  54  54 NE7       30.11R
PORT ARTHUR    MOCLDY    71  54  54 NE9       30.09R
GALVESTON      MOCLDY    75  58  55 E10       30.07S
ANGLETON       MOCLDY    72  57  59 E6        30.07R
*BAY CITY      FAIR      67  58  71 CALM      30.07R
PALACIOS       FAIR      65  54  67 E6        30.05R
$$

TXZ229>234-239>247-300300-
TEXAS COASTAL BEND AND RIO GRANDE PLAINS

CITY           SKY/WX    TMP DP  RH WIND       PRES   REMARKS
VICTORIA       CLOUDY    72  54  53 E8        30.06S
*BEEVILLE      CLOUDY    69  57  65 NE7       30.04S
ROCKPORT       CLOUDY    73  62  68 E14       30.03S
*PORT ARANSAS  MOCLDY    71  65  80 NE13      30.04F
*PORT LAVACA   FAIR      69  59  70 E8        30.06R
*INGLESIDE     FAIR      73  64  74 E14       30.03R
CORPUS CHRISTI FAIR      71  62  73 E16       30.02S
CORPUS NAS     FAIR      71  67  87 E15       30.02R
*ROBSTOWN      FAIR      69  59  71 E10       30.02S
ALICE          CLOUDY    66  60  81 NE6       30.02S
KINGSVILLE NAS CLOUDY    72  61  68 E8        30.01S
COTULLA        CLOUDY    69  55  60 E12       30.05R
LAREDO         CLOUDY    62  58  86 N6        30.04R
$$

TXZ248>255-300300-
DEEP SOUTH TEXAS

CITY           SKY/WX    TMP DP  RH WIND       PRES   REMARKS
BROWNSVILLE    FAIR      76  71  85 E7        29.97R
PORT ISABEL    MOCLDY    76  72  87 E12       29.98R
HARLINGEN      MOCLDY    76  71  85 E9        29.97R
*HEBBRONVILLE  CLOUDY    65  55  71 E7        30.04R
MCALLEN        CLOUDY    70  63  78 W7        29.99R
*WESLACO       CLOUDY    76  68  76 E6        29.97S
FALFURRIAS     CLOUDY    74  62  66 NE8       30.01S
EDINBURG       CLOUDY    74  67  76 NE10      29.99R
*ZAPATA        CLOUDY    64  58  82 NW6       30.04R
$$

TXZ213>215-236>238-242>244-246-247-251-254-255-300300-
CMAN STATIONS

STATION/POSITION TIME  TEMP    WIND        PRES    WAVE
                       AIR SEA DIR/SP/G            HT/PER
                 (UTC) (F)     (DEG/KT/KT) (MB)    (FT/S)
SABINE PASS      0124   73 77   50/  8/  9 1020.1
NORTH JETTY/GLS  0124   75 74   90/ 13/ 15 1017.3
EAGLE POINT      0124   75 75   80/ 11/ 12 1017.6
MORGANS POINT    0124   74 76   80/  7/  8 1018.2
PORT O`CONNOR    0124   71 72              1016.9
PORT ARANSAS     0200   71 71   50/ 18/ 19 1016.5
MALAQUITE BEACH  0124   72 73   40/ 17/ 19 1016.0
BAFFIN BAY       0124   72 75   30/ 13/ 15 1016.2
PORT ISABEL      0124   76 78   90/ 11/ 15 1015.0
$$




USA.gov is the U.S. government's official web portal to all federal, state and local government web resources and services.